Wetbulb
74.52 73.53 71.80 71.33 71.16 70.49 69.73 68.67 66.55 63.80 64.77 68.51 66.96 71.37 71.03 71.30 72.67 71.90 72.21 69.57 68.11 67.38 66.77 66.68 66.79 66.73 67.26 67.75 67.91 68.05 68.24 68.69 68.67 68.52 68.15 67.96 68.30 68.76
73.54 73.20 72.84 71.33 71.56 71.16 70.27 69.65 68.61 66.53 64.07 68.50 68.27 70.96 71.51 71.83 71.13 71.67 72.02 69.58 68.38 67.10 66.48 66.11 66.07 66.17 66.22 66.59 66.89 67.07 67.29 67.32 67.14 66.68 66.82 66.91 66.83 67.10
74.18 73.06 73.28 73.93 70.64 70.51 70.62 70.06 69.18 68.45 65.92 67.24 69.37 71.74 71.67 71.12 70.86 71.40 71.76 71.14 70.43 66.78 66.66 65.80 65.02 64.87 65.50 65.80 65.88 66.00 65.67 65.12 64.46 64.56 65.01 65.27 65.65 65.77
74.49 73.49 72.69 72.16 72.62 73.27 70.75 73.46 71.23 71.91 67.92 68.64 70.73 69.40 70.83 71.90 72.00 71.77 70.29 69.97 69.99 67.71 66.26 65.55 64.91 64.49 64.65 64.67 64.47 63.99 63.03 61.99 61.51 61.66 62.23 62.93 63.39 63.91
75.12 74.10 73.21 72.39 72.30 71.24 71.18 70.65 70.20 69.97 70.09 68.09 67.60 69.68 69.20 70.42 70.60 71.38 71.03 70.92 69.74 66.64 64.09 64.37 63.79 63.72 63.32 62.36 61.69 60.34 59.24 58.78 59.03 59.21 59.57 60.28 61.28 61.96
75.99 75.14 74.18 72.56 72.54 72.32 70.88 71.36 71.42 69.89 70.35 68.47 67.80 67.75 68.62 70.70 69.73 67.78 67.47 69.09 68.02 68.65 67.16 64.16 65.40 65.17 63.87 61.93 60.76 60.65 58.27 57.08 56.71 57.05 57.64 57.93 58.80 59.94
76.18 75.73 74.89 73.37 69.57 70.58 70.89 72.60 73.17 70.14 68.57 68.24 67.73 67.60 67.55 67.41 67.71 67.92 66.77 67.00 68.81 68.98 67.57 67.98 67.26 67.95 67.33 62.26 64.23 63.27 61.04 59.36 57.81 56.74 56.21 56.21 56.23 56.93
76.72 76.18 76.25 71.49 70.10 66.29 66.06 66.90 71.58 72.23 71.47 68.19 67.78 68.03 70.33 68.92 68.41 67.43 66.05 65.81 63.30 71.84 68.19 66.72 67.32 66.53 67.25 67.39 62.05 60.80 59.62 58.71 58.00 57.18 56.61 56.04 55.92 56.27
77.81 76.62 75.11 74.59 71.63 73.14 66.35 65.04 65.56 65.63 67.23 72.24 70.37 70.37 70.33 70.44 70.57 69.10 68.30 66.77 65.62 68.79 67.87 64.97 66.60 65.44 66.39 65.83 61.11 60.14 59.41 58.35 57.66 57.08 56.47 55.68 55.23 54.70
78.09 77.43 77.11 76.75 75.29 73.52 73.09 70.85 69.76 71.30 70.91 70.37 71.60 71.35 72.95 72.02 71.04 69.92 69.45 68.90 68.27 67.87 68.80 63.19 65.15 62.84 64.45 64.28 61.06 59.81 58.63 57.30 56.32 55.26 54.95 54.03 52.70 51.63
78.51 77.89 77.99 77.33 70.03 64.25 73.04 72.51 71.10 71.10 66.43 63.10 63.98 63.87 63.85 64.24 67.15 68.51 66.07 65.91 63.65 64.19 66.85 64.00 62.63 61.23 62.28 62.01 62.00 59.90 56.11 54.79 53.75 54.01 54.09 53.15 51.17 50.50
77.88 78.61 66.46 74.18 63.41 60.73 72.31 73.56 71.03 71.40 71.39 70.23 69.41 65.77 64.89 65.73 61.64 68.64 67.46 64.32 63.27 62.05 65.85 62.26 60.27 60.33 58.21 60.92 59.76 60.02 59.18 55.40 53.10 52.63 52.98 52.51 51.21 57.75
75.05 75.83 76.18 62.01 57.86 57.24 62.90 72.11 70.25 71.66 69.22 70.86 68.69 69.09 69.36 68.95 68.00 67.77 68.92 66.83 63.65 61.65 63.85 63.39 60.32 59.77 58.37 57.29 57.95 57.68 57.69 57.21 57.75 57.32 52.44 50.64 50.01 53.04
75.29 75.65 75.24 58.10 56.18 54.92 59.93 62.05 58.29 62.84 69.78 67.50 67.65 67.20 67.34 67.35 67.51 68.10 69.05 68.14 65.66 65.25 65.68 64.47 59.99 59.25 57.34 55.83 53.78 55.87 56.38 57.26 57.31 56.90 57.38 54.98 51.08 51.37
76.04 71.63 61.73 53.93 54.05 55.09 57.17 57.79 58.86 67.56 68.28 66.91 65.45 67.17 67.13 67.78 69.46 67.74 67.17 67.35 66.65 66.29 64.47 64.79 61.64 60.60 57.42 53.90 52.86 54.02 54.11 55.99 56.74 56.05 57.01 57.87 58.06 57.60
63.22 66.33 61.62 60.40 59.74 60.70 59.68 60.59 66.82 66.77 67.86 67.45 66.15 67.47 68.05 66.90 65.71 65.33 63.25 62.98 61.85 61.47 64.12 63.41 62.08 59.87 55.43 54.54 54.21 53.51 54.75 53.12 55.27 55.93 57.29 57.64 57.26 56.24
60.73 62.29 61.79 61.99 61.93 61.79 63.24 63.88 66.95 67.44 67.06 67.29 66.72 66.71 65.79 64.84 64.39 64.21 62.89 62.42 60.82 60.10 60.22 60.94 61.35 60.78 58.15 57.44 53.65 54.59 54.53 54.27 54.99 55.87 56.60 54.37 54.60 54.60
62.79 62.47 62.27 62.95 62.92 62.91 62.36 62.31 64.94 65.61 67.03 67.13 66.66 66.08 65.00 63.68 63.21 62.88 62.83 62.15 60.58 60.14 59.06 58.29 56.45 54.67 54.73 58.61 58.28 54.42 54.63 54.07 54.76 56.03 55.93 51.87 51.07 53.98
62.39 61.47 62.06 62.41 63.11 63.84 64.30 63.22 62.65 65.95 68.48 67.25 66.02 65.60 65.11 64.23 61.75 62.26 62.31 61.54 60.07 59.09 58.08 56.51 54.67 53.21 51.31 50.27 54.72 55.05 53.23 53.86 53.98 53.00 52.71 51.39 50.41 51.57
64.00 63.57 63.20 63.66 64.03 63.92 64.41 63.88 65.15 66.28 66.68 66.11 65.56 65.15 64.30 62.97 62.18 62.19 61.44 60.01 58.94 57.56 55.61 55.11 54.21 54.16 52.73 51.42 51.15 53.53 49.12 55.13 53.08 51.21 50.53 51.20 51.64 51.67
66.78 66.64 65.75 65.14 64.59 64.78 65.11 66.05 66.67 66.21 65.95 65.33 64.65 63.66 63.55 63.07 62.09 61.24 60.25 51.50 52.92 55.63 53.66 53.38 55.93 51.84 54.88 54.36 52.89 53.47 54.67 48.88 51.45 52.08 51.02 48.72 48.88 50.78
66.42 66.11 66.19 66.12 66.27 65.54 66.27 66.08 65.60 64.46 64.50 64.01 63.10 63.52 63.26 62.39 60.90 60.30 58.88 56.49 54.40 53.74 53.84 54.44 56.08 55.27 54.21 52.48 51.52 52.90 52.67 54.27 52.66 50.37 49.33 48.68 49.32 45.88
66.16 66.65 67.49 67.82 66.47 67.45 66.79 65.72 64.92 64.29 64.33 64.10 63.44 62.82 62.43 60.73 60.37 59.03 57.18 55.41 54.51 53.87 53.56 53.18 53.53 54.36 53.58 53.01 51.31 51.96 53.29 52.59 51.29 50.31 50.97 50.93 50.48 49.93
MSLP
1018.12 1018.42 1018.31 1017.82 1017.99 1018.05 1018.13 1017.98 1017.74 1017.22 1017.27 1018.07 1018.24 1018.71 1018.93 1019.13 1019.49 1019.97 1020.27 1020.56 1021.16 1021.26 1021.53 1021.66 1021.73 1021.62 1021.71 1021.85 1021.87 1021.76 1021.70 1021.60 1021.52 1021.55 1021.42 1021.29 1021.09 1021.03
1017.43 1017.72 1018.01 1017.54 1017.85 1017.97 1017.90 1017.92 1017.93 1017.82 1017.38 1017.40 1018.08 1018.23 1018.78 1019.08 1019.75 1020.11 1019.85 1020.32 1020.67 1021.01 1021.20 1021.39 1021.09 1021.34 1021.31 1021.03 1020.93 1020.90 1020.91 1020.90 1020.98 1020.97 1021.03 1020.97 1020.92 1020.86
1016.94 1017.14 1017.60 1017.64 1017.46 1017.49 1017.69 1017.75 1017.75 1017.81 1017.62 1017.36 1018.06 1018.63 1019.41 1019.59 1019.24 1019.48 1019.44 1019.73 1019.39 1020.21 1020.54 1020.63 1020.85 1020.70 1020.72 1020.66 1020.51 1020.52 1020.58 1020.52 1020.60 1020.65 1020.71 1020.66 1020.54 1020.48
1016.35 1016.71 1017.06 1017.32 1017.61 1017.38 1017.41 1017.62 1017.58 1017.75 1017.91 1017.85 1017.65 1018.28 1019.29 1019.17 1019.20 1019.40 1019.20 1018.76 1018.97 1019.69 1020.00 1020.54 1020.57 1020.43 1020.42 1020.51 1020.53 1020.58 1020.38 1020.22 1020.18 1020.31 1020.30 1020.36 1020.31 1020.15
1015.46 1015.86 1016.27 1016.61 1016.82 1016.79 1017.25 1017.09 1017.48 1017.76 1017.93 1017.90 1017.72 1018.00 1017.98 1018.43 1019.00 1019.39 1019.27 1019.02 1019.06 1019.49 1019.69 1019.84 1019.92 1020.12 1020.22 1020.34 1020.37 1020.24 1020.34 1020.24 1020.11 1019.99 1020.07 1020.14 1020.18 1019.96
1014.49 1014.89 1015.28 1015.67 1016.08 1016.60 1016.82 1017.20 1017.20 1017.35 1017.67 1017.77 1017.47 1017.17 1017.65 1017.98 1018.44 1018.14 1018.15 1018.39 1018.24 1018.27 1018.82 1019.07 1019.18 1019.46 1019.57 1019.71 1019.74 1019.65 1019.64 1019.69 1019.79 1019.69 1019.66 1019.78 1019.82 1019.79
1013.55 1013.92 1014.40 1014.91 1015.39 1015.81 1016.04 1016.56 1016.93 1017.37 1017.05 1017.06 1016.99 1016.99 1017.03 1017.09 1017.34 1017.53 1017.58 1017.85 1018.12 1018.33 1018.38 1017.91 1017.99 1017.79 1017.98 1018.79 1018.35 1018.66 1019.18 1019.35 1019.52 1019.48 1019.32 1019.28 1019.29 1019.30
1012.38 1013.00 1013.62 1014.21 1014.83 1015.22 1015.72 1015.98 1016.34 1016.52 1016.49 1016.36 1016.44 1016.25 1016.58 1017.01 1017.15 1017.31 1017.38 1017.40 1017.67 1018.28 1018.28 1017.39 1017.34 1017.25 1017.29 1017.22 1018.10 1018.31 1018.57 1018.86 1018.90 1019.00 1018.96 1018.91 1018.84 1018.75
1011.38 1011.92 1012.60 1013.06 1013.89 1014.58 1015.33 1015.70 1015.93 1016.04 1016.19 1016.19 1016.30 1016.16 1016.15 1016.78 1017.07 1017.25 1017.73 1017.76 1017.89 1017.95 1018.24 1017.47 1017.10 1016.80 1016.69 1016.62 1017.71 1018.11 1018.40 1018.61 1018.64 1018.50 1018.40 1018.39 1018.32 1018.30
1010.45 1010.92 1011.40 1011.83 1012.52 1013.47 1014.09 1014.76 1015.34 1015.54 1015.64 1015.61 1015.53 1015.78 1016.25 1016.65 1017.06 1017.40 1017.59 1018.01 1017.84 1017.62 1017.83 1017.61 1017.05 1016.82 1016.76 1016.88 1017.24 1017.65 1018.09 1018.09 1018.04 1018.02 1017.99 1017.86 1017.69 1017.59
1008.94 1009.48 1010.04 1010.64 1011.20 1012.35 1013.12 1013.44 1014.18 1014.41 1014.74 1015.58 1015.71 1015.97 1016.17 1016.53 1016.81 1016.98 1017.16 1017.32 1016.67 1016.71 1017.33 1017.25 1017.10 1016.78 1016.88 1016.80 1016.51 1017.09 1017.22 1017.24 1017.16 1017.19 1017.25 1017.10 1016.98 1016.99
1007.81 1008.38 1008.92 1009.20 1009.97 1010.94 1011.70 1011.94 1012.83 1013.42 1013.89 1014.39 1015.64 1016.03 1016.45 1016.74 1017.22 1016.94 1016.59 1016.44 1016.32 1015.87 1016.54 1017.05 1016.93 1016.73 1016.42 1016.18 1016.46 1016.39 1016.11 1016.23 1016.46 1016.33 1016.37 1016.32 1016.19 1015.90
1005.49 1006.02 1006.85 1007.97 1008.94 1009.63 1010.65 1011.40 1011.51 1012.31 1013.18 1013.84 1014.81 1014.99 1015.45 1015.89 1016.14 1016.42 1016.44 1016.03 1015.82 1015.97 1016.61 1017.11 1017.00 1016.78 1016.53 1015.97 1015.89 1015.79 1015.45 1015.34 1015.33 1015.27 1015.40 1015.45 1015.67 1015.97
1003.20 1003.74 1004.42 1006.30 1007.92 1009.28 1010.16 1010.96 1011.99 1012.03 1012.93 1013.18 1014.28 1014.13 1014.17 1014.41 1014.73 1015.01 1015.98 1016.18 1016.02 1016.56 1017.15 1017.44 1017.22 1016.90 1016.61 1016.18 1015.80 1015.56 1015.25 1015.02 1015.09 1014.78 1014.53 1014.60 1014.96 1014.83
1002.38 1002.87 1003.98 1005.90 1007.45 1008.89 1009.76 1010.45 1011.25 1013.00 1013.10 1012.99 1013.16 1013.06 1013.30 1013.51 1013.90 1014.65 1015.79 1016.38 1016.42 1016.71 1017.09 1017.37 1017.31 1017.05 1016.62 1016.16 1015.72 1015.34 1015.17 1014.74 1014.63 1014.38 1014.17 1014.04 1013.80 1013.96
1004.41 1004.68 1004.52 1006.22 1007.82 1008.75 1009.67 1010.14 1010.84 1009.38 1012.42 1012.29 1012.34 1011.96 1012.67 1012.89 1013.77 1014.44 1015.24 1015.49 1015.67 1015.63 1016.42 1017.00 1017.08 1017.13 1016.38 1016.06 1015.77 1015.11 1014.72 1014.47 1014.46 1014.21 1013.99 1013.88 1013.84 1013.65
1004.91 1005.30 1006.01 1006.63 1007.85 1008.71 1009.90 1009.65 1010.77 1011.15 1009.91 1010.56 1011.17 1011.31 1011.80 1012.73 1013.20 1013.79 1014.37 1014.35 1014.74 1014.63 1014.84 1015.61 1016.35 1016.55 1016.17 1016.44 1015.59 1014.91 1014.55 1014.26 1014.29 1014.17 1014.25 1013.60 1013.51 1013.03
1004.19 1004.83 1005.66 1006.22 1007.44 1008.35 1008.04 1009.04 1009.94 1010.05 1010.06 1010.05 1010.40 1010.77 1010.98 1011.87 1012.27 1013.25 1013.75 1013.71 1014.05 1014.25 1014.78 1014.86 1015.27 1015.20 1014.96 1014.69 1014.76 1014.38 1014.37 1014.30 1014.34 1014.33 1014.19 1013.34 1012.68 1012.38
1002.27 1002.98 1004.00 1003.60 1004.07 1003.33 1005.80 1007.51 1007.82 1008.76 1009.22 1009.51 1009.84 1009.88 1010.33 1011.11 1012.02 1012.64 1013.11 1013.50 1013.73 1013.90 1014.51 1014.82 1015.02 1014.86 1014.69 1014.19 1014.11 1014.81 1014.75 1014.54 1014.47 1014.12 1013.82 1013.50 1012.77 1012.29
1000.60 1001.07 1001.74 1001.66 1001.47 1002.33 1004.33 1006.06 1006.36 1007.75 1008.23 1008.48 1009.01 1009.34 1010.09 1010.59 1011.32 1011.62 1012.26 1013.00 1013.25 1013.59 1014.06 1014.39 1014.55 1014.39 1014.44 1014.11 1014.25 1014.52 1014.81 1014.75 1014.38 1014.29 1014.02 1013.63 1013.10 1012.44
1000.11 1000.68 1001.43 1002.12 1001.99 1002.20 1004.06 1005.28 1005.04 1006.72 1007.30 1007.88 1008.53 1009.08 1009.60 1010.27 1010.57 1010.75 1011.55 1012.66 1012.86 1013.20 1013.45 1013.68 1013.92 1014.80 1014.60 1014.42 1013.84 1013.41 1013.71 1014.55 1014.79 1014.76 1014.30 1013.73 1012.91 1012.06
999.03 999.97 1000.56 1001.32 1002.12 1002.59 1003.07 1004.30 1005.45 1005.51 1007.01 1007.84 1008.42 1008.69 1009.15 1009.37 1009.92 1010.50 1011.02 1011.88 1012.94 1013.03 1013.04 1013.12 1013.63 1013.89 1013.70 1013.52 1013.19 1013.33 1013.45 1013.42 1013.98 1013.80 1013.83 1013.80 1013.54 1012.87
1000.98 1001.01 1000.26 1001.02 1001.95 1002.55 1003.24 1004.20 1004.97 1005.32 1006.47 1007.34 1007.75 1008.45 1008.80 1008.82 1009.67 1010.08 1010.81 1011.58 1011.73 1012.18 1012.62 1012.71 1012.79 1012.91 1012.86 1012.93 1013.25 1013.25 1012.96 1013.00 1013.20 1012.97 1012.81 1013.30 1013.47 1013.56
Wind_Speed
9 9 9 6 6 5 5 5 6 5 5 7 5 4 3 4 3 6 8 9 8 8 8 8 7 9 9 8 8 8 9 10 9 9 10 11 12 12
9 10 9 8 7 6 6 6 6 6 6 3 5 1 3 1 5 6 5 3 8 7 8 7 8 8 7 9 9 8 7 6 7 7 8 8 9 11
12 11 12 10 8 8 8 7 7 7 7 5 3 6 4 5 4 6 5 6 6 12 9 8 6 7 8 8 7 7 7 5 5 6 8 8 9 9
15 14 13 10 12 9 8 8 8 6 8 7 4 5 6 8 7 7 6 7 4 9 5 2 5 8 7 7 6 7 6 6 8 8 8 9 10 9
16 16 15 14 13 10 11 9 9 7 8 8 6 6 5 7 8 7 6 7 6 10 9 8 10 8 7 6 7 8 9 8 7 6 7 7 8 9
17 17 16 16 15 14 11 11 8 8 8 7 8 7 7 7 7 7 7 8 6 6 4 9 5 6 10 9 9 12 11 9 8 8 7 7 9 9
18 18 17 17 15 14 11 12 10 10 9 9 9 8 8 8 7 7 7 6 4 5 6 9 8 8 9 13 14 16 6 7 8 9 9 9 9 9
17 17 16 15 14 16 15 7 12 12 12 9 10 10 8 7 7 8 7 7 6 2 6 7 5 7 6 9 10 6 4 5 6 7 8 9 11 11
17 16 16 14 17 17 15 14 11 12 11 11 12 10 8 9 8 6 8 7 7 3 7 8 7 8 7 4 8 3 3 6 8 9 9 9 10 10
18 18 16 16 16 17 16 18 17 15 17 13 13 12 9 8 9 8 7 6 8 8 6 7 7 7 6 7 7 5 2 5 7 8 9 10 10 10
17 19 18 18 15 19 17 17 16 15 12 14 4 2 7 5 4 7 8 8 6 6 6 5 7 6 6 8 6 11 6 10 10 9 9 9 8 9
18 17 18 20 17 22 19 16 15 14 14 14 13 6 6 7 5 9 7 8 7 7 2 4 7 6 7 6 4 8 7 8 12 13 12 12 11 9
16 16 16 24 17 23 22 15 15 11 12 9 9 10 11 12 10 9 10 9 7 6 4 4 7 7 7 8 8 7 7 8 8 8 10 15 6 7
19 17 15 21 21 20 19 12 6 7 7 8 8 10 9 10 10 9 9 8 5 5 5 3 6 7 8 9 9 8 8 8 9 10 10 9 12 15
13 11 13 18 18 13 10 10 12 4 4 9 11 10 9 9 7 8 8 7 6 6 6 6 8 7 7 9 9 9 8 8 9 10 9 11 10 10
3 6 13 14 11 10 9 10 8 14 13 10 9 7 7 8 7 8 9 8 8 9 11 9 8 7 8 8 8 9 9 10 10 10 9 10 11 12
10 8 8 8 9 10 5 7 6 11 12 11 10 9 9 9 9 9 8 8 8 8 7 10 10 8 7 7 8 7 9 9 10 10 10 12 11 12
11 12 10 11 10 8 8 10 8 8 8 9 10 10 10 10 9 9 9 8 8 7 7 5 5 6 7 8 13 7 8 9 10 11 11 12 13 12
12 15 15 16 16 19 16 13 13 11 12 11 11 11 10 10 10 10 8 8 8 7 6 5 6 5 7 8 5 5 7 9 11 12 11 12 14 13
14 14 13 12 14 16 15 13 12 13 14 12 11 10 10 10 11 9 8 8 8 6 6 6 7 5 7 6 8 9 13 9 10 11 13 12 12 17
11 11 10 12 12 12 13 12 13 13 12 11 11 11 11 10 9 8 8 2 3 6 7 7 2 3 4 5 6 7 7 15 7 10 12 12 13 13
8 9 11 12 12 11 11 12 13 13 12 11 11 11 10 9 8 9 8 9 8 8 8 5 4 5 5 5 7 9 9 9 8 15 19 13 10 12
5 9 11 13 10 10 11 11 12 12 13 12 11 10 10 8 8 8 8 9 8 8 7 6 6 5 4 5 5 8 11 10 10 10 9 14 12 9
Wind_Direction
205 212 233 219 215 224 227 236 267 259 218 160 253 172 270 212 206 241 237 190 197 222 246 256 263 265 273 286 287 285 285 292 295 298 297 292 286 285
220 204 220 225 214 225 227 228 239 267 279 199 203 154 215 229 135 236 233 147 187 221 239 249 253 268 275 269 274 280 272 263 273 287 299 301 296 289
218 214 214 228 229 217 222 227 228 234 250 246 248 151 206 241 196 216 219 247 228 192 210 232 247 251 254 262 259 258 260 261 276 283 286 288 289 291
214 218 218 213 220 239 221 228 225 219 252 238 261 197 220 211 233 228 254 264 274 147 174 204 230 241 247 248 245 250 250 264 271 276 270 274 281 283
217 215 215 214 213 226 221 219 223 222 210 256 255 213 228 212 210 237 241 255 262 150 188 214 226 233 231 238 248 248 266 266 265 264 277 273 271 274
220 218 216 213 214 212 216 223 230 230 216 237 241 237 212 214 232 261 233 220 238 277 268 265 267 210 222 228 236 248 246 254 273 279 274 265 271 271
219 220 219 216 209 210 213 208 211 216 233 220 240 240 235 220 220 246 256 277 242 236 277 260 212 227 216 217 240 226 214 231 249 257 262 272 266 252
219 217 226 201 206 203 212 226 205 213 231 236 237 240 245 242 242 258 260 272 274 86 280 276 279 275 281 280 74 49 360 311 285 276 264 256 256 261
216 216 216 219 206 213 210 216 219 211 240 226 246 262 251 230 255 220 250 257 267 248 240 278 288 284 302 313 117 134 249 262 268 269 269 271 269 262
218 217 216 219 207 210 211 213 223 216 223 227 228 237 246 256 221 232 256 250 252 242 218 269 292 290 302 300 167 166 249 281 265 269 259 257 263 268
216 217 215 215 203 181 211 214 210 218 213 223 244 96 110 175 196 224 226 250 262 251 178 259 285 289 285 291 288 152 209 246 264 273 273 280 268 252
218 219 210 217 185 176 200 203 208 207 211 189 210 188 173 182 205 233 250 245 250 261 67 258 289 304 294 291 289 299 308 228 235 247 251 254 257 281
221 210 217 196 184 177 190 202 202 192 189 193 203 204 204 210 205 213 234 255 254 262 105 217 277 292 292 299 299 301 301 305 304 300 247 243 233 242
210 217 207 171 174 179 178 186 218 196 174 173 197 212 204 210 208 192 217 231 249 280 124 245 271 288 299 297 299 310 306 311 306 298 304 306 201 217
234 215 161 160 160 162 148 144 149 184 206 197 205 210 207 215 195 162 195 206 215 234 229 236 269 291 282 289 293 298 304 304 306 303 300 292 297 311
46 107 131 139 166 147 148 160 182 152 193 211 208 194 187 193 187 183 199 193 222 216 197 213 230 260 281 286 293 300 308 306 313 304 310 306 300 294
135 117 126 134 148 142 173 154 213 204 187 186 200 186 185 187 200 191 209 207 226 242 224 184 202 235 265 274 277 288 300 306 312 322 315 300 301 290
139 145 152 149 137 146 144 176 189 215 201 187 193 194 184 197 193 193 210 219 225 238 243 244 262 266 272 249 217 287 303 310 316 318 303 299 302 300
161 161 168 170 174 172 180 184 181 183 197 194 192 194 190 189 188 195 207 221 228 239 247 250 252 263 282 295 340 224 309 310 312 307 314 308 302 305
171 175 189 191 178 168 164 172 165 186 197 184 192 187 192 188 191 211 199 218 224 234 230 232 235 238 264 312 325 319 206 273 306 315 312 311 302 285
176 183 192 192 170 152 163 180 164 179 181 180 185 184 189 197 197 200 205 243 216 213 229 232 168 74 295 277 272 288 335 207 250 299 303 306 307 310
210 192 179 168 160 160 154 166 181 157 170 180 185 191 190 192 198 198 208 187 206 231 225 227 186 214 230 273 297 311 308 334 255 241 236 250 315 315
243 192 167 153 147 149 158 169 173 162 171 184 184 188 184 189 204 195 205 208 209 203 213 218 217 214 232 267 281 288 300 319 323 321 322 194 227 247